| time (UTC) | temp F | wind direction | speed MPH | gust MPH | rain 1hr in | rain 24hr in | rain mn in | humidity % | barometer mb |
| 20260901040518 | 76 | 259 | 0.0 | 1.0 | 0.00 | 0.02 | 0.00 | 87 | 1018.5 |
| 20260901035519 | 76 | 192 | 0.0 | 1.0 | 0.00 | 0.02 | 0.02 | 87 | 1018.4 |
| 20260901034516 | 76 | 251 | 0.0 | 1.0 | 0.00 | 0.02 | 0.02 | 87 | 1018.4 |
| 20260901033516 | 76 | 233 | 0.0 | 2.0 | 0.00 | 0.02 | 0.02 | 87 | 1018.4 |
| 20260901032516 | 76 | 221 | 0.0 | 3.0 | 0.00 | 0.02 | 0.02 | 86 | 1018.2 |
| 20260901031516 | 76 | 233 | 0.0 | 2.0 | 0.00 | 0.02 | 0.02 | 86 | 1018.3 |
| 20260901030516 | 76 | 218 | 0.0 | 2.0 | 0.00 | 0.02 | 0.02 | 86 | 1018.3 |
| 20260901025517 | 76 | 197 | 0.0 | 2.0 | 0.00 | 0.02 | 0.02 | 85 | 1018.4 |
| 20260901024517 | 76 | 208 | 0.0 | 2.0 | 0.00 | 0.02 | 0.02 | 85 | 1018.3 |
| 20260901023517 | 76 | 223 | 0.0 | 2.0 | 0.00 | 0.02 | 0.02 | 85 | 1018.5 |
| 20260901022517 | 77 | 205 | 0.0 | 2.0 | 0.00 | 0.02 | 0.02 | 86 | 1018.7 |
| 20260901021517 | 77 | 209 | 1.0 | 3.0 | 0.00 | 0.02 | 0.02 | 86 | 1018.7 |
| 20260901020517 | 77 | 215 | 0.0 | 2.0 | 0.00 | 0.02 | 0.02 | 86 | 1018.7 |
| 20260901015517 | 77 | 259 | 0.0 | 2.0 | 0.00 | 0.02 | 0.02 | 86 | 1018.7 |
| 20260901014518 | 77 | 216 | 0.0 | 3.0 | 0.00 | 0.02 | 0.02 | 85 | 1018.8 |
| 20260901013538 | 76 | 228 | 0.0 | 3.0 | 0.00 | 0.02 | 0.02 | 85 | 1018.8 |
| 20260901012538 | 76 | 262 | 0.0 | 2.0 | 0.00 | 0.02 | 0.02 | 85 | 1018.8 |
| 20260901011518 | 76 | 234 | 0.0 | 2.0 | 0.00 | 0.02 | 0.02 | 85 | 1018.8 |
| 20260901010518 | 76 | 219 | 0.0 | 2.0 | 0.00 | 0.02 | 0.02 | 85 | 1018.9 |
| 20260901005516 | 76 | 238 | 0.0 | 3.0 | 0.00 | 0.02 | 0.02 | 85 | 1018.9 |
| 20260901004536 | 77 | 225 | 0.0 | 3.0 | 0.00 | 0.02 | 0.02 | 84 | 1018.8 |
| 20260901003516 | 77 | 233 | 0.0 | 2.0 | 0.00 | 0.02 | 0.02 | 84 | 1018.5 |
| 20260901002516 | 77 | 232 | 0.0 | 1.0 | 0.00 | 0.02 | 0.02 | 84 | 1018.5 |
| 20260901001536 | 77 | 264 | 0.0 | 2.0 | 0.00 | 0.02 | 0.02 | 83 | 1018.6 |
| 20260901000517 | 77 | 262 | 0.0 | 1.0 | 0.00 | 0.02 | 0.02 | 83 | 1018.6 |
| 20260831235516 | 77 | 258 | 0.0 | 0.0 | 0.00 | 0.02 | 0.02 | 83 | 1018.6 |
| 20260831234536 | 77 | 227 | 0.0 | 4.0 | 0.00 | 0.02 | 0.02 | 82 | 1018.7 |
| 20260831233517 | 77 | 230 | 0.0 | 2.0 | 0.00 | 0.02 | 0.02 | 82 | 1018.8 |
| 20260831232517 | 77 | 235 | 0.0 | 3.0 | 0.00 | 0.02 | 0.02 | 82 | 1018.9 |
| 20260831231517 | 77 | 247 | 0.0 | 2.0 | 0.00 | 0.02 | 0.02 | 81 | 1019.0 |
| 20260831230537 | 77 | 281 | 0.0 | 3.0 | 0.00 | 0.02 | 0.02 | 81 | 1018.9 |
| 20260831225517 | 78 | 231 | 1.0 | 3.0 | 0.00 | 0.02 | 0.02 | 80 | 1018.9 |
| 20260831224518 | 78 | 236 | 0.0 | 3.0 | 0.00 | 0.02 | 0.02 | 80 | 1018.9 |
| 20260831223518 | 78 | 229 | 0.0 | 4.0 | 0.00 | 0.02 | 0.02 | 80 | 1019.2 |
| 20260831222518 | 78 | 200 | 0.0 | 2.0 | 0.00 | 0.02 | 0.02 | 79 | 1019.4 |
| 20260831221519 | 78 | 242 | 0.0 | 2.0 | 0.00 | 0.02 | 0.02 | 79 | 1019.3 |
| 20260831220518 | 78 | 55 | 1.0 | 3.0 | 0.00 | 0.02 | 0.02 | 79 | 1019.4 |
| 20260831215516 | 79 | 69 | 1.0 | 3.0 | 0.00 | 0.02 | 0.02 | 78 | 1019.4 |
| 20260831214519 | 79 | 55 | 1.0 | 2.0 | 0.00 | 0.02 | 0.02 | 77 | 1019.4 |
| 20260831213516 | 79 | 61 | 1.0 | 3.0 | 0.00 | 0.02 | 0.02 | 77 | 1019.4 |
| 20260831212516 | 79 | 63 | 1.0 | 4.0 | 0.00 | 0.02 | 0.02 | 77 | 1019.3 |
| 20260831211517 | 79 | 39 | 1.0 | 5.0 | 0.00 | 0.02 | 0.02 | 76 | 1019.2 |
| 20260831210517 | 79 | 73 | 1.0 | 6.0 | 0.00 | 0.02 | 0.02 | 76 | 1019.1 |
| 20260831205517 | 80 | 49 | 1.0 | 3.0 | 0.00 | 0.02 | 0.02 | 75 | 1019.1 |
| 20260831204517 | 80 | 54 | 1.0 | 4.0 | 0.00 | 0.02 | 0.02 | 75 | 1019.0 |
| 20260831203517 | 80 | 43 | 2.0 | 6.0 | 0.00 | 0.02 | 0.02 | 74 | 1019.0 |
| 20260831202517 | 80 | 47 | 3.0 | 7.0 | 0.00 | 0.02 | 0.02 | 74 | 1019.0 |
| 20260831201518 | 80 | 39 | 2.0 | 5.0 | 0.00 | 0.02 | 0.02 | 76 | 1019.0 |
| 20260831200518 | 82 | 45 | 1.0 | 5.0 | 0.00 | 0.02 | 0.02 | 74 | 1018.9 |
| 20260831195518 | 82 | 41 | 1.0 | 3.0 | 0.00 | 0.02 | 0.02 | 72 | 1019.0 |
| 20260831194518 | 81 | 34 | 2.0 | 4.0 | 0.00 | 0.02 | 0.02 | 73 | 1019.2 |
| 20260831193518 | 80 | 48 | 2.0 | 8.0 | 0.00 | 0.02 | 0.02 | 76 | 1019.2 |
| 20260831192538 | 80 | 327 | 1.0 | 4.0 | 0.00 | 0.02 | 0.02 | 76 | 1019.2 |
| 20260831191538 | 81 | 43 | 1.0 | 5.0 | 0.00 | 0.02 | 0.02 | 75 | 1019.1 |
| 20260831190519 | 82 | 63 | 1.0 | 4.0 | 0.00 | 0.02 | 0.02 | 73 | 1019.3 |
| 20260831185516 | 83 | 35 | 1.0 | 4.0 | 0.00 | 0.02 | 0.02 | 72 | 1019.4 |
| 20260831184519 | 83 | 311 | 1.0 | 3.0 | 0.00 | 0.02 | 0.02 | 71 | 1019.4 |
| 20260831183516 | 82 | 333 | 1.0 | 3.0 | 0.00 | 0.02 | 0.02 | 71 | 1019.4 |
| 20260831182536 | 81 | 38 | 1.0 | 5.0 | 0.00 | 0.02 | 0.02 | 72 | 1019.5 |
| 20260831181517 | 80 | 39 | 1.0 | 4.0 | 0.00 | 0.02 | 0.02 | 73 | 1019.6 |
| 20260831180517 | 80 | 58 | 1.0 | 3.0 | 0.00 | 0.02 | 0.02 | 74 | 1019.6 |
| 20260831175516 | 80 | 58 | 1.0 | 3.0 | 0.00 | 0.02 | 0.02 | 75 | 1019.7 |
| 20260831174517 | 80 | 56 | 1.0 | 4.0 | 0.00 | 0.02 | 0.02 | 75 | 1019.7 |
| 20260831173517 | 80 | 16 | 1.0 | 4.0 | 0.00 | 0.02 | 0.02 | 76 | 1019.7 |
| 20260831172517 | 81 | 53 | 1.0 | 3.0 | 0.00 | 0.02 | 0.02 | 75 | 1019.6 |
| 20260831171517 | 81 | 59 | 0.0 | 2.0 | 0.00 | 0.02 | 0.02 | 74 | 1019.7 |
| 20260831170518 | 81 | 17 | 1.0 | 4.0 | 0.00 | 0.02 | 0.02 | 74 | 1019.7 |
| 20260831165518 | 81 | 53 | 0.0 | 3.0 | 0.00 | 0.02 | 0.02 | 73 | 1019.8 |
| 20260831164518 | 82 | 47 | 1.0 | 4.0 | 0.00 | 0.02 | 0.02 | 72 | 1019.8 |
| 20260831163518 | 82 | 69 | 1.0 | 3.0 | 0.00 | 0.02 | 0.02 | 72 | 1019.9 |
| 20260831162518 | 82 | 84 | 1.0 | 4.0 | 0.00 | 0.02 | 0.02 | 71 | 1020.0 |
| 20260831161518 | 81 | 64 | 1.0 | 4.0 | 0.00 | 0.02 | 0.02 | 74 | 1020.0 |
| 20260831160516 | 81 | 324 | 1.0 | 3.0 | 0.00 | 0.02 | 0.02 | 74 | 1019.9 |
| 20260831155518 | 81 | 49 | 1.0 | 4.0 | 0.00 | 0.02 | 0.02 | 75 | 1020.1 |
| 20260831154519 | 82 | 50 | 1.0 | 4.0 | 0.00 | 0.02 | 0.02 | 72 | 1020.1 |
| 20260831153516 | 82 | 263 | 1.0 | 3.0 | 0.00 | 0.02 | 0.02 | 71 | 1020.1 |
| 20260831152516 | 82 | 56 | 1.0 | 3.0 | 0.00 | 0.02 | 0.02 | 72 | 1020.1 |
| 20260831151517 | 82 | 49 | 1.0 | 4.0 | 0.00 | 0.02 | 0.02 | 72 | 1020.2 |
| 20260831150516 | 82 | 47 | 2.0 | 5.0 | 0.00 | 0.02 | 0.02 | 72 | 1020.2 |
| 20260831145517 | 83 | 44 | 1.0 | 4.0 | 0.00 | 0.02 | 0.02 | 70 | 1020.0 |
| 20260831144517 | 82 | 65 | 1.0 | 3.0 | 0.00 | 0.02 | 0.02 | 71 | 1019.9 |
| 20260831143517 | 82 | 46 | 2.0 | 5.0 | 0.00 | 0.02 | 0.02 | 72 | 1019.8 |
| 20260831142517 | 81 | 41 | 2.0 | 6.0 | 0.00 | 0.02 | 0.02 | 74 | 1019.7 |
| 20260831141517 | 80 | 47 | 1.0 | 4.0 | 0.00 | 0.02 | 0.02 | 75 | 1019.8 |
| 20260831140517 | 81 | 56 | 1.0 | 4.0 | 0.00 | 0.02 | 0.02 | 74 | 1019.9 |
| 20260831135518 | 80 | 54 | 1.0 | 3.0 | 0.00 | 0.02 | 0.02 | 76 | 1019.9 |
| 20260831134517 | 79 | 58 | 1.0 | 3.0 | 0.00 | 0.02 | 0.02 | 77 | 1020.0 |
| 20260831133518 | 79 | 44 | 1.0 | 5.0 | 0.00 | 0.02 | 0.02 | 80 | 1020.0 |
| 20260831132518 | 77 | 47 | 1.0 | 3.0 | 0.00 | 0.02 | 0.02 | 83 | 1020.1 |
| 20260831131528 | 77 | 61 | 1.0 | 2.0 | 0.00 | 0.02 | 0.02 | 84 | 1020.1 |
| 20260831130527 | 76 | 98 | 0.0 | 1.0 | 0.00 | 0.02 | 0.02 | 85 | 1020.1 |
| 20260831125527 | 76 | 61 | 0.0 | 0.0 | 0.00 | 0.02 | 0.02 | 86 | 1020.1 |
| 20260831124528 | 76 | 39 | 1.0 | 3.0 | 0.00 | 0.02 | 0.02 | 86 | 1020.0 |
| 20260831123528 | 76 | 37 | 0.0 | 0.0 | 0.00 | 0.02 | 0.02 | 85 | 1019.9 |
| 20260831122528 | 76 | 51 | 1.0 | 2.0 | 0.00 | 0.02 | 0.02 | 85 | 1019.8 |
| 20260831121529 | 75 | 56 | 1.0 | 2.0 | 0.00 | 0.02 | 0.02 | 87 | 1019.8 |
| 20260831120548 | 75 | 66 | 0.0 | 1.0 | 0.00 | 0.02 | 0.02 | 89 | 1019.7 |
| 20260831115528 | 75 | 30 | 0.0 | 1.0 | 0.00 | 0.02 | 0.02 | 90 | 1019.7 |
| 20260831114528 | 75 | 84 | 0.0 | 0.0 | 0.00 | 0.02 | 0.02 | 90 | 1019.6 |
| 20260831113528 | 75 | 0.0 | 0.0 | 0.00 | 0.02 | 0.02 | 90 | 1019.5 | |
| 20260831112549 | 75 | 57 | 0.0 | 1.0 | 0.00 | 0.02 | 0.02 | 90 | 1019.4 |
| 20260831111529 | 75 | 30 | 0.0 | 1.0 | 0.00 | 0.02 | 0.02 | 91 | 1019.5 |
| 20260831110529 | 74 | 0.0 | 0.0 | 0.00 | 0.02 | 0.02 | 90 | 1019.4 | |
| 20260831105529 | 74 | 0.0 | 0.0 | 0.00 | 0.02 | 0.02 | 90 | 1019.3 | |
| 20260831104529 | 74 | 32 | 0.0 | 1.0 | 0.00 | 0.02 | 0.02 | 90 | 1019.2 |
| 20260831103530 | 74 | 0.0 | 0.0 | 0.00 | 0.02 | 0.02 | 90 | 1019.1 | |
| 20260831102530 | 74 | 0.0 | 0.0 | 0.00 | 0.02 | 0.02 | 90 | 1019.0 | |
| 20260831101550 | 74 | 0.0 | 0.0 | 0.00 | 0.02 | 0.02 | 90 | 1018.9 | |
| 20260831100530 | 74 | 0.0 | 0.0 | 0.00 | 0.02 | 0.02 | 90 | 1018.8 | |
| 20260831095530 | 74 | 340 | 0.0 | 0.0 | 0.00 | 0.02 | 0.02 | 90 | 1018.8 |
| 20260831094530 | 74 | 123 | 0.0 | 1.0 | 0.02 | 0.02 | 0.02 | 89 | 1018.8 |
| 20260831093516 | 74 | 0.0 | 0.0 | 0.02 | 0.02 | 0.02 | 89 | 1018.8 | |
| 20260831092516 | 74 | 0.0 | 0.0 | 0.02 | 0.02 | 0.02 | 89 | 1018.7 | |
| 20260831091516 | 75 | 65 | 0.0 | 2.0 | 0.02 | 0.02 | 0.02 | 89 | 1018.7 |
| 20260831090517 | 76 | 43 | 1.0 | 3.0 | 0.02 | 0.02 | 0.02 | 89 | 1018.8 |
| 20260831085516 | 76 | 0.0 | 0.0 | 0.02 | 0.02 | 0.02 | 90 | 1018.7 | |
| 20260831084517 | 76 | 103 | 0.0 | 0.0 | 0.00 | 0.00 | 0.00 | 90 | 1018.6 |
| 20260831083517 | 76 | 0.0 | 0.0 | 0.00 | 0.00 | 0.00 | 90 | 1018.5 | |
| 20260831082517 | 76 | 0.0 | 0.0 | 0.00 | 0.00 | 0.00 | 90 | 1018.6 | |
| 20260831081517 | 76 | 0.0 | 0.0 | 0.00 | 0.00 | 0.00 | 90 | 1018.6 | |
| 20260831080617 | 76 | 178 | 0.0 | 1.0 | 0.00 | 0.00 | 0.00 | 90 | 1018.6 |
| 20260831075537 | 76 | 0.0 | 0.0 | 0.00 | 0.00 | 0.00 | 90 | 1018.7 | |
| 20260831074517 | 76 | 0.0 | 0.0 | 0.00 | 0.00 | 0.00 | 89 | 1018.8 | |
| 20260831073517 | 76 | 0.0 | 0.0 | 0.00 | 0.00 | 0.00 | 89 | 1018.7 | |
| 20260831072518 | 76 | 0.0 | 0.0 | 0.00 | 0.00 | 0.00 | 89 | 1018.7 | |
| 20260831071539 | 76 | 0.0 | 0.0 | 0.00 | 0.00 | 0.00 | 89 | 1018.7 | |
| 20260831070518 | 76 | 0.0 | 0.0 | 0.00 | 0.00 | 0.00 | 88 | 1018.8 | |
| 20260831065516 | 76 | 0 | 0.0 | 0.0 | 0.00 | 0.00 | 0.00 | 88 | 1018.9 |
| 20260831064516 | 76 | 86 | 0.0 | 0.0 | 0.00 | 0.00 | 0.00 | 88 | 1018.9 |
| 20260831063516 | 76 | 0.0 | 0.0 | 0.00 | 0.00 | 0.00 | 88 | 1019.0 | |
| 20260831062516 | 76 | 0.0 | 0.0 | 0.00 | 0.00 | 0.00 | 88 | 1019.0 | |
| 20260831061516 | 76 | 0.0 | 0.0 | 0.00 | 0.00 | 0.00 | 88 | 1019.0 | |
| 20260831060517 | 76 | 20 | 0.0 | 1.0 | 0.00 | 0.00 | 0.00 | 88 | 1019.0 |
| 20260831055517 | 76 | 355 | 0.0 | 1.0 | 0.00 | 0.00 | 0.00 | 87 | 1019.1 |
| 20260831054517 | 76 | 0.0 | 0.0 | 0.00 | 0.00 | 0.00 | 87 | 1019.1 | |
| 20260831053517 | 76 | 334 | 0.0 | 0.0 | 0.00 | 0.00 | 0.00 | 87 | 1019.1 |
| 20260831052517 | 77 | 182 | 0.0 | 1.0 | 0.00 | 0.00 | 0.00 | 87 | 1019.0 |
| 20260831051517 | 77 | 230 | 0.0 | 1.0 | 0.00 | 0.00 | 0.00 | 87 | 1019.0 |
| 20260831050518 | 77 | 215 | 0.0 | 1.0 | 0.00 | 0.00 | 0.00 | 87 | 1019.0 |
| 20260831045518 | 77 | 277 | 0.0 | 2.0 | 0.00 | 0.00 | 0.00 | 87 | 1019.0 |
| 20260831044519 | 76 | 252 | 0.0 | 1.0 | 0.00 | 0.00 | 0.00 | 87 | 1019.0 |
| 20260831043518 | 76 | 16 | 0.0 | 1.0 | 0.00 | 0.00 | 0.00 | 86 | 1019.0 |
| 20260831042518 | 76 | 273 | 0.0 | 0.0 | 0.00 | 0.00 | 0.00 | 86 | 1019.0 |
| 20260831041518 | 76 | 0.0 | 0.0 | 0.00 | 0.00 | 0.00 | 86 | 1019.1 |